SIA321 EGLL-WSSS

Flight info

Callsign SIA321
Flight time 12h 23m
Altitude 29000
Route DET L6 DVR L9 KONAN UL607 FERDI DCT MATUG DCT GUBAX DCT KOMIB L984 SULUS Z650 VEMUT DCT DITIS DCT ERGOM DCT BUDOP DCT UDROS/N0491F310 UM859 KARDE UL851 TBN UR317 REBLO M11 LUSAL N199 BAKUV N701 LARGI B701 KRS A240 INRAK B449 DOLOS B475 RUBAD/N0498F330 A846 RANAH L750 ZB G202 RK P628 IBANI L510 BIDEX/N0498F350 L510 GIVAL P628 VPL Y503 RINBA Y507 MAKNA Y511 TOPOR A464 ARAMA DCT TEBUN TEBUN1A
Aircraft B77W/H-SDE1E2E3FGHIJ2J3J4J5M1RWXY/LB1D1

Departure

Time 2026-04-30 20:14
Airport London Heathrow Airport (EGLL)

Arrival

Time 2026-05-01 08:37
Airport Singapore Changi Airport (WSSS)
Time Latitude Longitude Altitude Speed Heading
2026-04-30 19:33 51.46938 -0.44410 94 ft 0 kts 90°
2026-04-30 19:57 51.46938 -0.44418 42 ft 3 kts 90°
2026-04-30 19:57 51.46938 -0.44461 92 ft 4 kts 90°
2026-04-30 19:57 51.46937 -0.44497 94 ft 2 kts 90°
2026-04-30 19:58 51.46941 -0.44535 91 ft 4 kts 127°
2026-04-30 19:58 51.46961 -0.44555 92 ft 4 kts 178°
2026-04-30 19:58 51.46986 -0.44556 91 ft 4 kts 180°
2026-04-30 19:58 51.46998 -0.44556 90 ft 0 kts 180°
2026-04-30 20:04 51.46992 -0.44556 90 ft 4 kts 180°
2026-04-30 20:04 51.46937 -0.44555 93 ft 10 kts 180°
2026-04-30 20:04 51.46871 -0.44555 91 ft 10 kts 179°
2026-04-30 20:05 51.46739 -0.44553 93 ft 9 kts 179°
2026-04-30 20:05 51.46677 -0.44575 93 ft 9 kts 228°
2026-04-30 20:05 51.46664 -0.44786 91 ft 10 kts 270°
2026-04-30 20:06 51.46664 -0.44893 91 ft 10 kts 270°
2026-04-30 20:06 51.46664 -0.45000 91 ft 10 kts 270°
2026-04-30 20:06 51.46663 -0.45107 91 ft 10 kts 270°
2026-04-30 20:06 51.46663 -0.45214 91 ft 10 kts 270°
2026-04-30 20:07 51.46663 -0.45321 91 ft 10 kts 270°
2026-04-30 20:07 51.46663 -0.45428 91 ft 10 kts 270°
2026-04-30 20:07 51.46662 -0.45641 91 ft 10 kts 269°
2026-04-30 20:08 51.46661 -0.45790 93 ft 19 kts 269°
2026-04-30 20:08 51.46659 -0.46007 94 ft 19 kts 270°
2026-04-30 20:08 51.46660 -0.46224 95 ft 19 kts 269°
2026-04-30 20:08 51.46658 -0.46468 94 ft 28 kts 270°
2026-04-30 20:09 51.46657 -0.46801 94 ft 30 kts 269°
2026-04-30 20:09 51.46654 -0.47134 91 ft 30 kts 270°
2026-04-30 20:09 51.46654 -0.47804 91 ft 30 kts 270°
2026-04-30 20:10 51.46653 -0.48374 91 ft 21 kts 269°
2026-04-30 20:10 51.46652 -0.48605 91 ft 18 kts 269°
2026-04-30 20:10 51.46643 -0.48723 94 ft 9 kts 237°
2026-04-30 20:11 51.46623 -0.48746 94 ft 0 kts 207°
2026-04-30 20:12 51.46581 -0.48776 93 ft 10 kts 200°
2026-04-30 20:12 51.46515 -0.48780 96 ft 10 kts 157°
2026-04-30 20:12 51.46480 -0.48691 94 ft 10 kts 95°
2026-04-30 20:13 51.46480 -0.48667 93 ft 0 kts 90°
2026-04-30 20:13 51.46479 -0.48508 91 ft 46 kts 90°
2026-04-30 20:13 51.46484 -0.47553 93 ft 124 kts 89°
2026-04-30 20:14 51.46497 -0.45776 98 ft 192 kts 88°
2026-04-30 20:14 51.46529 -0.43629 909 ft 188 kts 88°
2026-04-30 20:14 51.46503 -0.41705 2291 ft 162 kts 105°
2026-04-30 20:14 51.46002 -0.40140 2591 ft 167 kts 131°
2026-04-30 20:15 51.45175 -0.38817 2824 ft 170 kts 133°
2026-04-30 20:15 51.44553 -0.37139 2800 ft 187 kts 104°
2026-04-30 20:15 51.44307 -0.35053 2862 ft 191 kts 110°
2026-04-30 20:15 51.43849 -0.33084 3309 ft 187 kts 113°
2026-04-30 20:16 51.43397 -0.31075 3520 ft 197 kts 112°
2026-04-30 20:16 51.42919 -0.28932 3637 ft 213 kts 112°
2026-04-30 20:16 51.42490 -0.26618 3952 ft 220 kts 102°
2026-04-30 20:16 51.42264 -0.24191 4321 ft 226 kts 103°
2026-04-30 20:17 51.41905 -0.21660 4599 ft 238 kts 105°
2026-04-30 20:17 51.41524 -0.19029 4986 ft 246 kts 104°
2026-04-30 20:17 51.41144 -0.16323 5456 ft 251 kts 104°
2026-04-30 20:17 51.40761 -0.13588 5963 ft 252 kts 104°
2026-04-30 20:18 51.40381 -0.10854 6385 ft 252 kts 104°
2026-04-30 20:18 51.39996 -0.08081 6829 ft 257 kts 104°
2026-04-30 20:18 51.39606 -0.05275 7332 ft 259 kts 104°
2026-04-30 20:18 51.39214 -0.02446 7841 ft 261 kts 104°
2026-04-30 20:19 51.38818 0.00410 8331 ft 263 kts 104°
2026-04-30 20:19 51.38553 0.02312 8673 ft 264 kts 104°
2026-04-30 20:19 51.38013 0.06174 9324 ft 268 kts 104°
2026-04-30 20:19 51.37603 0.09110 9806 ft 270 kts 104°
2026-04-30 20:20 51.37192 0.12050 10254 ft 273 kts 104°
2026-04-30 20:20 51.36771 0.15044 10665 ft 277 kts 104°
2026-04-30 20:20 51.36344 0.18076 10995 ft 284 kts 104°
2026-04-30 20:20 51.35894 0.21259 11128 ft 301 kts 104°
2026-04-30 20:21 51.35417 0.24619 11272 ft 318 kts 104°
2026-04-30 20:21 51.34922 0.28116 11416 ft 335 kts 104°
2026-04-30 20:21 51.34394 0.31836 11581 ft 351 kts 104°
2026-04-30 20:21 51.33844 0.35716 11946 ft 361 kts 104°
2026-04-30 20:22 51.33282 0.39669 12424 ft 368 kts 104°
2026-04-30 20:22 51.32708 0.43683 12997 ft 371 kts 104°
2026-04-30 20:22 51.32326 0.46354 13428 ft 373 kts 104°
2026-04-30 20:22 51.31743 0.50413 14053 ft 376 kts 104°
2026-04-30 20:23 51.31153 0.54501 14632 ft 378 kts 104°
2026-04-30 20:23 51.30559 0.58602 15203 ft 380 kts 104°
2026-04-30 20:23 51.29916 0.62715 15767 ft 382 kts 107°
2026-04-30 20:23 51.28932 0.68152 16526 ft 386 kts 108°
2026-04-30 20:24 51.28409 0.70935 16905 ft 387 kts 108°
2026-04-30 20:24 51.27631 0.75071 17458 ft 390 kts 108°
2026-04-30 20:24 51.26852 0.79236 18016 ft 393 kts 107°
2026-04-30 20:24 51.26080 0.83387 18561 ft 396 kts 107°
2026-04-30 20:25 51.24512 0.91870 19529 ft 401 kts 107°
2026-04-30 20:25 51.23723 0.96147 19996 ft 403 kts 107°
2026-04-30 20:26 51.22115 1.04827 20856 ft 410 kts 107°
2026-04-30 20:26 51.20488 1.13571 21809 ft 413 kts 107°
2026-04-30 20:26 51.19664 1.17985 22280 ft 416 kts 107°
2026-04-30 20:27 51.17999 1.26881 23172 ft 420 kts 107°
2026-04-30 20:27 51.16446 1.35860 23990 ft 426 kts 102°
2026-04-30 20:28 51.15805 1.45297 24660 ft 432 kts 95°
2026-04-30 20:28 51.15377 1.54894 25338 ft 436 kts 95°
2026-04-30 20:29 51.14909 1.64567 26010 ft 439 kts 96°
2026-04-30 20:30 51.14174 1.79198 26951 ft 445 kts 96°
2026-04-30 20:30 51.13413 1.94030 27805 ft 451 kts 96°
2026-04-30 20:31 51.12623 2.09002 28607 ft 457 kts 96°
2026-04-30 20:32 51.11803 2.24212 29174 ft 464 kts 96°
2026-04-30 20:32 51.11239 2.34486 29248 ft 469 kts 96°
2026-04-30 20:33 51.10369 2.50039 29250 ft 469 kts 96°
2026-04-30 20:34 51.09357 2.65516 29251 ft 468 kts 101°
2026-04-30 20:35 51.06764 2.80443 29248 ft 466 kts 107°
2026-04-30 20:35 51.04043 2.95229 29265 ft 466 kts 107°
2026-04-30 20:36 51.02231 3.05121 29265 ft 466 kts 107°
2026-04-30 20:37 50.99493 3.19972 29266 ft 466 kts 107°
2026-04-30 20:37 50.97669 3.29797 29261 ft 466 kts 107°
2026-04-30 20:38 50.95824 3.39671 29266 ft 467 kts 107°
2026-04-30 20:38 50.93972 3.49544 29267 ft 467 kts 107°
2026-04-30 20:39 50.91176 3.64357 29272 ft 468 kts 107°
2026-04-30 20:40 50.88614 3.79288 29275 ft 468 kts 104°
2026-04-30 20:40 50.86954 3.89264 29283 ft 469 kts 105°
2026-04-30 20:41 50.84413 4.04205 29282 ft 469 kts 105°
2026-04-30 20:41 50.82691 4.14191 29288 ft 469 kts 105°
2026-04-30 20:42 50.80964 4.24140 29289 ft 469 kts 105°
2026-04-30 20:43 50.78367 4.39010 29294 ft 469 kts 105°
2026-04-30 20:43 50.76625 4.48915 29288 ft 468 kts 105°
2026-04-30 20:44 50.73994 4.63774 29286 ft 467 kts 106°
2026-04-30 20:45 50.70457 4.83560 29293 ft 470 kts 106°
2026-04-30 20:45 50.68666 4.93495 29296 ft 472 kts 106°
2026-04-30 20:46 50.65036 5.13466 29291 ft 474 kts 106°
2026-04-30 20:47 50.62301 5.28373 29294 ft 474 kts 106°
2026-04-30 20:48 50.59539 5.43305 29295 ft 474 kts 106°
2026-04-30 20:48 50.57686 5.53257 29293 ft 473 kts 106°
2026-04-30 20:49 50.55824 5.63200 29287 ft 474 kts 106°
2026-04-30 20:50 50.53026 5.78134 29299 ft 475 kts 105°
2026-04-30 20:50 50.51201 5.88064 29293 ft 476 kts 107°
2026-04-30 20:51 50.49251 5.98000 29297 ft 476 kts 107°
2026-04-30 20:51 50.46362 6.12928 29304 ft 476 kts 106°
2026-04-30 20:52 50.44444 6.22882 29303 ft 475 kts 106°
2026-04-30 20:53 50.41682 6.37788 29296 ft 473 kts 101°
2026-04-30 20:53 50.40804 6.47996 29307 ft 472 kts 96°
2026-04-30 20:54 50.39670 6.63351 29301 ft 473 kts 96°
2026-04-30 20:55 50.38466 6.78716 29322 ft 474 kts 96°
2026-04-30 20:55 50.37647 6.88974 29340 ft 474 kts 97°
2026-04-30 20:56 50.36400 7.04381 29343 ft 475 kts 96°
2026-04-30 20:57 50.35136 7.19770 29342 ft 475 kts 96°
2026-04-30 20:57 50.34279 7.30049 29347 ft 475 kts 96°
2026-04-30 20:58 50.32984 7.45386 29353 ft 475 kts 96°
2026-04-30 20:58 50.32106 7.55629 29341 ft 475 kts 96°
2026-04-30 20:59 50.30779 7.70934 29348 ft 474 kts 96°
2026-04-30 21:00 50.28976 7.91370 29357 ft 473 kts 96°
2026-04-30 21:01 50.27684 8.06668 29360 ft 472 kts 96°
2026-04-30 21:02 50.26404 8.21936 29363 ft 472 kts 96°
2026-04-30 21:02 50.25533 8.32102 29372 ft 472 kts 96°
2026-04-30 21:03 50.24652 8.42270 29359 ft 472 kts 96°
2026-04-30 21:03 50.23759 8.52439 29356 ft 472 kts 96°
2026-04-30 21:04 50.23011 8.60895 29351 ft 473 kts 96°
2026-04-30 21:04 50.21497 8.77798 29357 ft 473 kts 96°
2026-04-30 21:05 50.20722 8.86335 29354 ft 473 kts 96°
2026-04-30 21:05 50.19797 8.96436 29356 ft 473 kts 96°
2026-04-30 21:06 50.18857 9.06601 29364 ft 473 kts 96°
2026-04-30 21:06 50.17907 9.16766 29359 ft 473 kts 96°
2026-04-30 21:07 50.16948 9.26930 29366 ft 473 kts 96°
2026-04-30 21:07 50.15988 9.37023 29357 ft 472 kts 96°
2026-04-30 21:08 50.15016 9.47145 29369 ft 472 kts 96°
2026-04-30 21:08 50.14035 9.57257 29371 ft 472 kts 96°
2026-04-30 21:09 50.13044 9.67373 29393 ft 471 kts 96°
2026-04-30 21:09 50.12046 9.77463 29389 ft 470 kts 96°
2026-04-30 21:10 50.11044 9.87518 29392 ft 469 kts 96°
2026-04-30 21:10 50.10035 9.97545 29392 ft 468 kts 96°
2026-04-30 21:11 50.09024 10.07508 29397 ft 468 kts 96°
2026-04-30 21:11 50.08001 10.17505 29408 ft 467 kts 96°
2026-04-30 21:12 50.07251 10.27519 29389 ft 463 kts 88°
2026-04-30 21:12 50.07351 10.37519 29396 ft 461 kts 86°
2026-04-30 21:13 50.07421 10.47510 29412 ft 461 kts 86°
2026-04-30 21:13 50.07459 10.57449 29433 ft 462 kts 86°
2026-04-30 21:14 50.07443 10.67465 29398 ft 463 kts 90°
2026-04-30 21:14 50.06489 10.77435 29411 ft 468 kts 99°
2026-04-30 21:15 50.04558 10.87161 29407 ft 470 kts 104°
2026-04-30 21:15 50.02480 10.96803 29406 ft 470 kts 104°
2026-04-30 21:16 50.00429 11.06454 29408 ft 469 kts 103°
2026-04-30 21:16 49.98398 11.16036 29417 ft 469 kts 104°
2026-04-30 21:17 49.96350 11.25639 29427 ft 468 kts 104°
2026-04-30 21:17 49.94296 11.35230 29429 ft 468 kts 104°
2026-04-30 21:18 49.92279 11.44831 29462 ft 466 kts 101°
2026-04-30 21:18 49.90574 11.54524 29438 ft 465 kts 100°
2026-04-30 21:19 49.88834 11.64202 29441 ft 465 kts 101°
2026-04-30 21:19 49.87579 11.73945 29450 ft 458 kts 92°
2026-04-30 21:20 49.86780 11.83738 29450 ft 458 kts 93°
2026-04-30 21:20 49.85918 11.93536 29453 ft 459 kts 93°
2026-04-30 21:21 49.85036 12.03319 29457 ft 458 kts 93°
2026-04-30 21:22 49.83682 12.17976 29445 ft 458 kts 93°
2026-04-30 21:23 49.81893 12.37455 29449 ft 458 kts 93°
2026-04-30 21:23 49.79239 12.51810 29443 ft 468 kts 107°
2026-04-30 21:24 49.76313 12.60891 29450 ft 472 kts 111°
2026-04-30 21:24 49.73301 12.69905 29456 ft 471 kts 111°
2026-04-30 21:25 49.68834 12.83354 29447 ft 469 kts 110°
2026-04-30 21:26 49.64382 12.96763 29443 ft 467 kts 110°
2026-04-30 21:27 49.59926 13.10124 29441 ft 467 kts 110°
2026-04-30 21:27 49.56941 13.19033 29435 ft 467 kts 110°
2026-04-30 21:28 49.52455 13.32361 29442 ft 467 kts 110°
2026-04-30 21:29 49.47968 13.45621 29435 ft 468 kts 110°
2026-04-30 21:30 49.40396 13.67839 29438 ft 468 kts 110°
2026-04-30 21:31 49.32817 13.89883 29432 ft 466 kts 110°
2026-04-30 21:32 49.28292 14.02961 29435 ft 464 kts 110°
2026-04-30 21:32 49.25258 14.11692 29426 ft 464 kts 110°
2026-04-30 21:33 49.20706 14.24733 29427 ft 463 kts 110°
2026-04-30 21:34 49.17664 14.33414 29468 ft 463 kts 110°
2026-04-30 21:34 49.13085 14.46424 29410 ft 462 kts 110°
2026-04-30 21:35 49.10032 14.55059 29419 ft 462 kts 110°
2026-04-30 21:35 49.06996 14.63621 29410 ft 461 kts 110°
2026-04-30 21:36 49.03942 14.72205 29456 ft 461 kts 109°
2026-04-30 21:37 48.97828 14.89303 29415 ft 458 kts 110°
2026-04-30 21:37 48.94777 14.97798 29417 ft 456 kts 110°
2026-04-30 21:38 48.91734 15.06247 29418 ft 456 kts 110°
2026-04-30 21:38 48.88847 15.14778 29416 ft 448 kts 104°
2026-04-30 21:39 48.86445 15.23491 29411 ft 447 kts 104°
2026-04-30 21:39 48.84014 15.32182 29430 ft 447 kts 104°
2026-04-30 21:40 48.81567 15.40853 29419 ft 447 kts 104°
2026-04-30 21:40 48.79110 15.49519 29435 ft 448 kts 104°
2026-04-30 21:41 48.76661 15.58124 29425 ft 447 kts 104°
2026-04-30 21:41 48.74191 15.66770 29416 ft 447 kts 104°
2026-04-30 21:42 48.71716 15.75408 29413 ft 446 kts 104°
2026-04-30 21:42 48.69241 15.84013 29423 ft 446 kts 104°
2026-04-30 21:43 48.67178 15.91166 29412 ft 446 kts 104°
2026-04-30 21:43 48.64269 16.01211 29410 ft 445 kts 104°
2026-04-30 21:44 48.61794 16.09726 29411 ft 445 kts 104°
2026-04-30 21:44 48.59296 16.18291 29409 ft 445 kts 105°
2026-04-30 21:45 48.56789 16.26854 29431 ft 446 kts 105°
2026-04-30 21:45 48.54270 16.35436 29410 ft 447 kts 105°
2026-04-30 21:46 48.51740 16.44019 29410 ft 448 kts 105°
2026-04-30 21:46 48.49196 16.52614 29405 ft 449 kts 105°
2026-04-30 21:47 48.46637 16.61231 29406 ft 450 kts 105°
2026-04-30 21:47 48.44072 16.69844 29403 ft 451 kts 105°
2026-04-30 21:48 48.41510 16.78416 29393 ft 452 kts 105°
2026-04-30 21:48 48.38922 16.87039 29399 ft 452 kts 105°
2026-04-30 21:49 48.36332 16.95642 29398 ft 452 kts 106°
2026-04-30 21:49 48.33729 17.04256 29389 ft 452 kts 106°
2026-04-30 21:50 48.31561 17.11406 29382 ft 451 kts 106°
2026-04-30 21:50 48.28530 17.21374 29377 ft 451 kts 106°
2026-04-30 21:51 48.26342 17.28542 29369 ft 451 kts 106°
2026-04-30 21:51 48.23735 17.37057 29421 ft 451 kts 106°
2026-04-30 21:52 48.21097 17.45654 29390 ft 455 kts 107°
2026-04-30 21:52 48.18442 17.54268 29379 ft 457 kts 107°
2026-04-30 21:53 48.15765 17.62921 29378 ft 458 kts 107°
2026-04-30 21:53 48.13069 17.71606 29372 ft 460 kts 107°
2026-04-30 21:54 48.10353 17.80322 29373 ft 463 kts 108°
2026-04-30 21:54 48.07622 17.89058 29375 ft 465 kts 108°
2026-04-30 21:55 48.04887 17.97775 29373 ft 466 kts 108°
2026-04-30 21:55 48.02125 18.06548 29375 ft 466 kts 108°
2026-04-30 21:56 47.99359 18.15302 29375 ft 467 kts 109°
2026-04-30 21:56 47.96572 18.24098 29373 ft 468 kts 109°
2026-04-30 21:57 47.93791 18.32843 29371 ft 469 kts 109°
2026-04-30 21:57 47.90987 18.41626 29376 ft 470 kts 109°
2026-04-30 21:58 47.88166 18.50436 29396 ft 471 kts 110°
2026-04-30 21:58 47.85332 18.59257 29388 ft 473 kts 110°
2026-04-30 21:59 47.82478 18.68110 29378 ft 475 kts 110°
2026-04-30 22:00 47.77828 18.81124 29381 ft 479 kts 114°
2026-04-30 22:00 47.72804 18.93992 29404 ft 480 kts 115°
2026-04-30 22:01 47.69461 19.02579 29387 ft 481 kts 115°
2026-04-30 22:01 47.66104 19.11194 29387 ft 482 kts 115°
2026-04-30 22:02 47.62741 19.19798 29376 ft 482 kts 115°
2026-04-30 22:02 47.59384 19.28356 29378 ft 484 kts 116°
2026-04-30 22:03 47.55988 19.36989 29379 ft 485 kts 116°
2026-04-30 22:03 47.52583 19.45616 29372 ft 486 kts 116°
2026-04-30 22:04 47.49169 19.54236 29378 ft 486 kts 116°
2026-04-30 22:05 47.44030 19.67166 29375 ft 487 kts 117°
2026-04-30 22:05 47.40581 19.75802 29376 ft 487 kts 117°
2026-04-30 22:06 47.37128 19.84425 29367 ft 488 kts 117°
2026-04-30 22:06 47.31956 19.97291 29381 ft 488 kts 117°
2026-04-30 22:07 47.28486 20.05888 29371 ft 489 kts 117°
2026-04-30 22:07 47.25002 20.14492 29371 ft 489 kts 118°
2026-04-30 22:08 47.21515 20.23078 29388 ft 488 kts 118°
2026-04-30 22:08 47.18021 20.31654 29373 ft 489 kts 118°
2026-04-30 22:09 47.14520 20.40220 29370 ft 489 kts 118°
2026-04-30 22:09 47.11007 20.48787 29370 ft 489 kts 118°
2026-04-30 22:10 47.07484 20.57352 29353 ft 489 kts 118°
2026-04-30 22:10 47.03984 20.65836 29349 ft 489 kts 118°
2026-04-30 22:11 46.98686 20.78627 29346 ft 489 kts 118°
2026-04-30 22:12 46.95144 20.87145 29347 ft 490 kts 118°
2026-04-30 22:12 46.91589 20.95668 29338 ft 490 kts 118°
2026-04-30 22:13 46.88036 21.04162 29336 ft 490 kts 118°
2026-04-30 22:13 46.84472 21.12654 29338 ft 490 kts 118°
2026-04-30 22:14 46.80925 21.21080 29350 ft 490 kts 118°
2026-04-30 22:14 46.77348 21.29551 29337 ft 490 kts 118°
2026-04-30 22:15 46.73757 21.38033 29337 ft 491 kts 118°
2026-04-30 22:15 46.70162 21.46499 29339 ft 491 kts 119°
2026-04-30 22:16 46.66751 21.55112 29343 ft 490 kts 115°
2026-04-30 22:17 46.60317 21.72670 29332 ft 492 kts 115°
2026-04-30 22:17 46.55474 21.85751 29332 ft 492 kts 115°
2026-04-30 22:18 46.50579 21.98873 29342 ft 493 kts 116°
2026-04-30 22:19 46.45653 22.12016 29346 ft 493 kts 116°
2026-04-30 22:20 46.40718 22.25124 29365 ft 494 kts 116°
2026-04-30 22:20 46.35769 22.38202 29356 ft 496 kts 116°
2026-04-30 22:21 46.32443 22.46957 29367 ft 497 kts 116°
2026-04-30 22:21 46.29101 22.55728 29377 ft 497 kts 116°
2026-04-30 22:22 46.25750 22.64492 29369 ft 498 kts 116°
2026-04-30 22:22 46.22400 22.73225 29369 ft 497 kts 116°
2026-04-30 22:23 46.19038 22.81961 29370 ft 497 kts 116°
2026-04-30 22:23 46.15675 22.90674 29394 ft 498 kts 116°
2026-04-30 22:24 46.12310 22.99361 29372 ft 499 kts 116°
2026-04-30 22:24 46.08919 23.08090 29369 ft 499 kts 116°
2026-04-30 22:25 46.05525 23.16798 29377 ft 499 kts 116°
2026-04-30 22:25 46.02115 23.25520 29364 ft 500 kts 116°
2026-04-30 22:26 45.96979 23.38610 29373 ft 502 kts 117°
2026-04-30 22:27 45.93536 23.47341 29375 ft 503 kts 117°
2026-04-30 22:27 45.88360 23.60422 29358 ft 505 kts 117°
2026-04-30 22:28 45.83134 23.73569 29354 ft 506 kts 117°
2026-04-30 22:29 45.76147 23.91047 29324 ft 507 kts 117°
2026-04-30 22:31 45.63827 24.21598 29376 ft 506 kts 117°
2026-04-30 22:32 45.55046 24.43168 29374 ft 507 kts 118°
2026-04-30 22:33 45.46099 24.64982 29373 ft 512 kts 118°
2026-04-30 22:35 45.37031 24.86911 29381 ft 517 kts 119°
2026-04-30 22:36 45.27863 25.08911 29374 ft 516 kts 119°
2026-04-30 22:37 45.20500 25.26457 29374 ft 518 kts 120°
2026-04-30 22:38 45.13117 25.43942 29375 ft 519 kts 121°
2026-04-30 22:39 45.08155 25.55632 29437 ft 522 kts 121°
2026-04-30 22:39 45.02543 25.68797 30380 ft 521 kts 121°
2026-04-30 22:40 44.96930 25.81903 31229 ft 518 kts 122°
2026-04-30 22:41 44.91315 25.94949 31332 ft 520 kts 122°
2026-04-30 22:41 44.87565 26.03633 31337 ft 517 kts 123°
2026-04-30 22:43 44.76310 26.29530 31328 ft 517 kts 123°
2026-04-30 22:44 44.68766 26.46757 31329 ft 519 kts 124°
2026-04-30 22:45 44.57324 26.72692 31318 ft 521 kts 125°
2026-04-30 22:47 44.45817 26.98536 31313 ft 521 kts 125°
2026-04-30 22:48 44.38145 27.15640 31313 ft 520 kts 125°
2026-04-30 22:49 44.26567 27.41262 31310 ft 519 kts 126°
2026-04-30 22:51 44.14975 27.66687 31292 ft 518 kts 127°
2026-04-30 22:52 44.09163 27.79352 31280 ft 517 kts 128°
2026-04-30 22:53 44.01414 27.96151 31279 ft 518 kts 128°
2026-04-30 22:53 43.95558 28.08782 31269 ft 518 kts 129°
2026-04-30 22:55 43.85752 28.29811 31243 ft 519 kts 129°
2026-04-30 22:56 43.77875 28.46593 31267 ft 520 kts 130°
2026-04-30 22:57 43.67982 28.67536 31241 ft 522 kts 130°
2026-04-30 22:58 43.60001 28.84319 31246 ft 525 kts 130°
2026-04-30 22:59 43.47896 29.09598 31224 ft 528 kts 131°
2026-05-01 07:23 6.52052 99.29864 34829 ft 486 kts 110°
2026-05-01 07:24 6.48519 99.39376 34831 ft 486 kts 110°
2026-05-01 07:24 6.46140 99.45743 34835 ft 486 kts 110°
2026-05-01 07:25 6.43763 99.52104 34830 ft 486 kts 110°
2026-05-01 07:25 6.41388 99.58469 34832 ft 486 kts 110°
2026-05-01 07:26 6.39011 99.64836 34831 ft 485 kts 110°
2026-05-01 07:26 6.36544 99.71153 34830 ft 486 kts 115°
2026-05-01 07:27 6.32979 99.76865 34834 ft 486 kts 127°
2026-05-01 07:27 6.28386 99.81855 34837 ft 486 kts 134°
2026-05-01 07:28 6.23596 99.86666 34828 ft 487 kts 133°
2026-05-01 07:28 6.18811 99.91549 34834 ft 487 kts 133°
2026-05-01 07:29 6.14108 99.96393 34832 ft 488 kts 133°
2026-05-01 07:29 6.09351 100.01283 34834 ft 488 kts 133°
2026-05-01 07:30 6.04583 100.06154 34836 ft 489 kts 133°
2026-05-01 07:30 5.99806 100.11029 34836 ft 489 kts 133°
2026-05-01 07:31 5.95055 100.15880 34842 ft 489 kts 133°
2026-05-01 07:32 5.83110 100.28079 34852 ft 490 kts 133°
2026-05-01 07:33 5.75937 100.35401 34850 ft 491 kts 133°
2026-05-01 07:33 5.68758 100.42726 34861 ft 491 kts 133°
2026-05-01 07:34 5.61554 100.50073 34843 ft 492 kts 133°
2026-05-01 07:35 5.56750 100.54972 34843 ft 491 kts 133°
2026-05-01 07:35 5.51953 100.59862 34837 ft 491 kts 133°
2026-05-01 07:36 5.47166 100.64742 34856 ft 491 kts 133°
2026-05-01 07:36 5.42371 100.69629 34860 ft 491 kts 133°
2026-05-01 07:37 5.33981 100.75352 34898 ft 496 kts 159°
2026-05-01 07:37 5.27172 100.76714 34895 ft 500 kts 171°
2026-05-01 07:38 5.20267 100.77673 34893 ft 501 kts 170°
2026-05-01 07:39 5.09951 100.79250 34883 ft 502 kts 169°
2026-05-01 07:39 4.99607 100.80882 34880 ft 502 kts 169°
2026-05-01 07:40 4.92705 100.81966 34881 ft 501 kts 169°
2026-05-01 07:40 4.85813 100.83061 34875 ft 501 kts 169°
2026-05-01 07:41 4.78926 100.84157 34865 ft 501 kts 169°
2026-05-01 07:42 4.68649 100.85789 34859 ft 499 kts 169°
2026-05-01 07:42 4.61782 100.86878 34858 ft 499 kts 169°
2026-05-01 07:43 4.54918 100.87969 34852 ft 499 kts 169°
2026-05-01 07:43 4.44772 100.90141 34856 ft 495 kts 159°
2026-05-01 07:44 4.32345 100.95961 34849 ft 493 kts 152°
2026-05-01 07:45 4.26225 100.98982 34859 ft 493 kts 152°
2026-05-01 07:45 4.20044 101.01999 34869 ft 494 kts 152°
2026-05-01 07:46 4.13843 101.05016 34868 ft 494 kts 152°
2026-05-01 07:47 4.04578 101.09526 34869 ft 494 kts 152°
2026-05-01 07:47 3.98388 101.12539 34858 ft 494 kts 152°
2026-05-01 07:48 3.89118 101.17052 34858 ft 494 kts 152°
2026-05-01 07:48 3.82968 101.20046 34858 ft 494 kts 152°
2026-05-01 07:49 3.73694 101.24606 34847 ft 495 kts 151°
2026-05-01 07:50 3.67600 101.27795 34854 ft 494 kts 150°
2026-05-01 07:50 3.58495 101.32576 34848 ft 494 kts 150°
2026-05-01 07:51 3.52390 101.35754 34854 ft 494 kts 151°
2026-05-01 07:52 3.43209 101.40527 34844 ft 495 kts 151°
2026-05-01 07:52 3.37091 101.43711 34832 ft 496 kts 151°
2026-05-01 07:53 3.27878 101.48359 34813 ft 496 kts 154°
2026-05-01 07:53 3.21574 101.51204 34802 ft 496 kts 154°
2026-05-01 07:55 3.05892 101.58358 34805 ft 496 kts 153°
2026-05-01 07:56 2.90219 101.65588 34821 ft 495 kts 154°
2026-05-01 07:57 2.80879 101.69892 34772 ft 494 kts 154°
2026-05-01 07:58 2.68398 101.75708 34775 ft 494 kts 152°
2026-05-01 07:59 2.56136 101.81952 34787 ft 494 kts 144°
2026-05-01 07:59 2.50980 101.86432 34815 ft 491 kts 130°
2026-05-01 08:00 2.42807 101.97318 34821 ft 491 kts 125°
2026-05-01 08:01 2.34601 102.08291 34838 ft 493 kts 126°
2026-05-01 08:02 2.28416 102.16502 34831 ft 494 kts 126°
2026-05-01 08:03 2.22208 102.24750 34832 ft 495 kts 126°
2026-05-01 08:03 2.16007 102.32989 34830 ft 494 kts 126°
2026-05-01 08:04 2.07751 102.43956 34832 ft 493 kts 126°
2026-05-01 08:05 2.01591 102.52139 34836 ft 493 kts 126°
2026-05-01 08:06 1.95401 102.60362 34835 ft 493 kts 126°
2026-05-01 08:07 1.87144 102.71334 34838 ft 494 kts 126°
2026-05-01 08:08 1.80939 102.79580 34832 ft 494 kts 126°
2026-05-01 08:08 1.76843 102.85021 34549 ft 482 kts 126°
2026-05-01 08:09 1.72974 102.90431 33001 ft 485 kts 120°
2026-05-01 08:09 1.71343 102.93399 31922 ft 492 kts 116°
2026-05-01 08:09 1.69756 102.96454 30877 ft 497 kts 116°
2026-05-01 08:10 1.67061 103.01611 29433 ft 499 kts 117°
2026-05-01 08:10 1.63845 103.07583 28388 ft 482 kts 120°
2026-05-01 08:11 1.59348 103.12449 27145 ft 478 kts 143°
2026-05-01 08:11 1.53453 103.15360 25991 ft 471 kts 158°
2026-05-01 08:12 1.47377 103.17666 24884 ft 464 kts 157°
2026-05-01 08:12 1.44396 103.18826 24348 ft 451 kts 156°
2026-05-01 08:12 1.38676 103.21093 22276 ft 436 kts 156°
2026-05-01 08:13 1.35877 103.22213 21059 ft 432 kts 156°
2026-05-01 08:13 1.33131 103.23313 19938 ft 427 kts 156°
2026-05-01 08:13 1.27694 103.25483 17914 ft 414 kts 155°
2026-05-01 08:14 1.25047 103.26541 16810 ft 403 kts 155°
2026-05-01 08:14 1.22522 103.27775 16172 ft 401 kts 149°
2026-05-01 08:14 1.20117 103.29171 15667 ft 398 kts 147°
2026-05-01 08:14 1.17788 103.30582 15503 ft 385 kts 146°
2026-05-01 08:15 1.15520 103.31948 15340 ft 375 kts 147°
2026-05-01 08:15 1.11149 103.34522 15001 ft 354 kts 147°
2026-05-01 08:15 1.09048 103.35741 14845 ft 344 kts 147°
2026-05-01 08:16 1.07005 103.36921 14708 ft 334 kts 147°
2026-05-01 08:16 1.05021 103.38066 14566 ft 325 kts 147°
2026-05-01 08:16 1.03094 103.39177 14460 ft 315 kts 147°
2026-05-01 08:16 1.01231 103.40251 14373 ft 305 kts 147°
2026-05-01 08:17 0.99409 103.41335 13966 ft 302 kts 141°
2026-05-01 08:17 0.98018 103.42877 13410 ft 301 kts 116°
2026-05-01 08:17 0.97351 103.44818 12993 ft 299 kts 98°
2026-05-01 08:17 0.97159 103.46873 12670 ft 296 kts 94°
2026-05-01 08:18 0.97024 103.48919 12310 ft 294 kts 94°
2026-05-01 08:18 0.96728 103.52982 11608 ft 292 kts 94°
2026-05-01 08:19 0.96424 103.57021 10942 ft 288 kts 91°
2026-05-01 08:19 0.96568 103.59018 10558 ft 289 kts 82°
2026-05-01 08:19 0.96882 103.60998 10220 ft 288 kts 81°
2026-05-01 08:19 0.97208 103.62972 9906 ft 287 kts 81°
2026-05-01 08:20 0.97512 103.64936 9601 ft 285 kts 82°
2026-05-01 08:20 0.97798 103.66893 9239 ft 285 kts 82°
2026-05-01 08:20 0.98075 103.68853 8919 ft 284 kts 82°
2026-05-01 08:20 0.98343 103.70772 8863 ft 273 kts 82°
2026-05-01 08:21 0.98604 103.72636 8865 ft 278 kts 82°
2026-05-01 08:21 0.98875 103.74581 8863 ft 285 kts 82°
2026-05-01 08:21 0.99161 103.76624 8898 ft 313 kts 82°
2026-05-01 08:21 0.99476 103.78883 8881 ft 338 kts 82°
2026-05-01 08:22 0.99802 103.81213 8877 ft 340 kts 82°
2026-05-01 08:22 1.00131 103.83566 8875 ft 342 kts 82°
2026-05-01 08:22 1.00453 103.85923 8872 ft 342 kts 83°
2026-05-01 08:22 1.00761 103.88281 8864 ft 343 kts 83°
2026-05-01 08:23 1.01070 103.90647 8872 ft 343 kts 83°
2026-05-01 08:23 1.01380 103.93017 8870 ft 343 kts 83°
2026-05-01 08:23 1.01693 103.95376 8870 ft 341 kts 82°
2026-05-01 08:23 1.02378 103.97617 8865 ft 339 kts 61°
2026-05-01 08:24 1.03732 103.99538 8878 ft 342 kts 54°
2026-05-01 08:24 1.05167 104.01462 8878 ft 347 kts 54°
2026-05-01 08:24 1.06588 104.03409 8873 ft 346 kts 55°
2026-05-01 08:24 1.07999 104.05356 8871 ft 345 kts 55°
2026-05-01 08:25 1.09399 104.07294 8856 ft 344 kts 55°
2026-05-01 08:25 1.10798 104.09232 8858 ft 343 kts 55°
2026-05-01 08:25 1.12190 104.11160 8843 ft 341 kts 55°
2026-05-01 08:25 1.13679 104.12989 8575 ft 340 kts 43°
2026-05-01 08:26 1.15722 104.14203 8285 ft 342 kts 24°
2026-05-01 08:26 1.17943 104.15096 8094 ft 344 kts 24°
2026-05-01 08:26 1.20141 104.16010 8050 ft 343 kts 24°
2026-05-01 08:26 1.22341 104.16939 8010 ft 343 kts 24°
2026-05-01 08:27 1.24508 104.17859 8012 ft 343 kts 24°
2026-05-01 08:27 1.26702 104.18793 8006 ft 343 kts 24°
2026-05-01 08:27 1.28907 104.19733 8008 ft 343 kts 24°
2026-05-01 08:27 1.31106 104.20664 8005 ft 341 kts 22°
2026-05-01 08:28 1.33400 104.21150 8006 ft 343 kts
2026-05-01 08:28 1.35767 104.20788 8015 ft 342 kts 348°
2026-05-01 08:28 1.38041 104.20258 7740 ft 326 kts 348°
2026-05-01 08:28 1.40179 104.19780 7517 ft 303 kts 349°
2026-05-01 08:29 1.42159 104.19344 7410 ft 279 kts 349°
2026-05-01 08:29 1.44002 104.18943 7163 ft 264 kts 349°
2026-05-01 08:29 1.45757 104.18565 6734 ft 253 kts 349°
2026-05-01 08:29 1.47457 104.18201 6231 ft 247 kts 349°
2026-05-01 08:30 1.49107 104.17847 5771 ft 237 kts 350°
2026-05-01 08:30 1.50688 104.17507 5314 ft 228 kts 350°
2026-05-01 08:30 1.52204 104.17181 5133 ft 218 kts 351°
2026-05-01 08:30 1.53668 104.16865 5030 ft 217 kts 347°
2026-05-01 08:31 1.54966 104.16168 5003 ft 215 kts 314°
2026-05-01 08:31 1.55802 104.14935 5026 ft 216 kts 301°
2026-05-01 08:31 1.56530 104.13685 5021 ft 220 kts 301°
2026-05-01 08:31 1.57301 104.12359 5014 ft 221 kts 301°
2026-05-01 08:32 1.58062 104.11045 5010 ft 216 kts 301°
2026-05-01 08:32 1.58758 104.09713 4921 ft 217 kts 292°
2026-05-01 08:32 1.58999 104.08261 4777 ft 213 kts 259°
2026-05-01 08:32 1.58375 104.06952 4363 ft 210 kts 221°
2026-05-01 08:33 1.57127 104.06301 3934 ft 202 kts 187°
2026-05-01 08:33 1.55728 104.06120 3700 ft 207 kts 191°
2026-05-01 08:33 1.54321 104.05758 3434 ft 208 kts 195°
2026-05-01 08:33 1.52941 104.05336 3153 ft 207 kts 199°
2026-05-01 08:34 1.51607 104.04823 2881 ft 203 kts 202°
2026-05-01 08:34 1.50337 104.04287 2625 ft 196 kts 202°
2026-05-01 08:34 1.49105 104.03764 2375 ft 190 kts 202°
2026-05-01 08:34 1.47877 104.03243 2142 ft 194 kts 201°
2026-05-01 08:35 1.46628 104.02715 1908 ft 194 kts 202°
2026-05-01 08:35 1.45391 104.02190 1668 ft 189 kts 201°
2026-05-01 08:35 1.44204 104.01686 1387 ft 181 kts 202°
2026-05-01 08:35 1.43085 104.01211 1159 ft 168 kts 201°
2026-05-01 08:36 1.42051 104.00773 986 ft 161 kts 201°
2026-05-01 08:36 1.41013 104.00334 767 ft 161 kts 202°
2026-05-01 08:36 1.40002 103.99906 584 ft 155 kts 199°
2026-05-01 08:36 1.39023 103.99492 372 ft 154 kts 204°
2026-05-01 08:37 1.38037 103.99073 143 ft 156 kts 204°
2026-05-01 08:37 1.37037 103.98647 38 ft 150 kts 205°
2026-05-01 08:37 1.36240 103.98310 37 ft 92 kts 202°
2026-05-01 08:37 1.35857 103.98148 37 ft 37 kts 203°
2026-05-01 08:38 1.35669 103.98113 39 ft 17 kts 176°
2026-05-01 08:38 1.35569 103.98119 34 ft 13 kts 177°
2026-05-01 08:38 1.35508 103.98125 33 ft 7 kts 172°
2026-05-01 08:38 1.35457 103.98132 32 ft 7 kts 172°
2026-05-01 08:39 1.35407 103.98138 32 ft 7 kts 174°
2026-05-01 08:39 1.35357 103.98142 31 ft 7 kts 175°
2026-05-01 08:39 1.35315 103.98169 31 ft 7 kts 125°
2026-05-01 08:39 1.35327 103.98214 30 ft 7 kts 43°
2026-05-01 08:40 1.35351 103.98232 30 ft 0 kts 37°
2026-05-01 08:41 1.35354 103.98236 30 ft 4 kts 46°
2026-05-01 08:41 1.35366 103.98268 30 ft 5 kts 85°
2026-05-01 08:42 1.35349 103.98304 30 ft 8 kts 137°
2026-05-01 08:42 1.35305 103.98336 30 ft 8 kts 127°
2026-05-01 08:42 1.35284 103.98387 30 ft 8 kts 112°
2026-05-01 08:42 1.35278 103.98400 30 ft 0 kts 113°